Location: Newark
(49.4642°N, 2.1122°E)
Time: 23:36:06
(UTC+00:00)

SPROUT - Visible Passes

Search period start: 06 July 2020 00:00
Search period end: 16 July 2020 00:00
Orbit: 599 x 610 km, 97.9° (Epoch: 06 July)

Date Brightness Start Highest point End Pass type
(mag) Time Alt. Az. Time Alt. Az. Time Alt. Az.
06 Jul ? 01:18:18 12° WSW 01:19:32 14° W 01:21:44 10° WNW visible
06 Jul ? 22:18:30 10° E 22:20:37 14° ENE 22:22:44 10° NNE visible
06 Jul ? 23:54:12 38° S 23:55:47 86° WSW 00:00:06 10° NNW visible
07 Jul ? 01:31:46 10° W 01:32:17 10° W 01:32:48 10° WNW visible
07 Jul ? 22:30:16 10° E 22:33:02 17° ENE 22:35:49 10° NNE visible
08 Jul ? 00:06:57 39° SSW 00:08:23 65° WSW 00:12:40 10° NNW visible
08 Jul ? 22:42:51 13° ESE 22:45:29 22° ENE 22:48:45 10° NNE visible
09 Jul ? 00:19:42 36° SSW 00:21:00 48° W 00:25:11 10° NNW visible
09 Jul ? 22:55:36 17° ESE 22:57:57 27° ENE 23:01:35 10° N visible
10 Jul ? 00:32:27 30° SW 00:33:38 36° W 00:37:37 10° NNW visible
10 Jul ? 23:08:21 22° ESE 23:10:27 35° ENE 23:14:21 10° N visible
11 Jul ? 00:45:12 25° WSW 00:46:18 28° W 00:50:00 10° NW visible
11 Jul ? 23:21:06 28° SE 23:22:57 45° ENE 23:27:04 10° N visible
12 Jul ? 00:57:57 20° WSW 00:58:58 21° W 01:02:17 10° NW visible
12 Jul ? 23:33:51 34° SE 23:35:29 60° ENE 23:39:44 10° N visible
13 Jul ? 01:10:42 15° WSW 01:11:41 16° W 01:14:25 10° NW visible
13 Jul ? 22:11:28 10° ENE 22:12:58 12° NE 22:14:28 10° NE visible
13 Jul ? 23:46:37 41° SSE 23:48:03 80° ENE 23:52:21 10° NNW visible
14 Jul ? 01:23:28 12° W 01:24:25 12° W 01:26:14 10° WNW visible
14 Jul ? 22:23:00 10° E 22:25:22 15° ENE 22:27:46 10° NNE visible
14 Jul ? 23:59:22 45° S 00:00:37 78° WSW 00:04:56 10° NNW visible
15 Jul ? 22:35:16 12° E 22:37:49 19° ENE 22:40:47 10° NNE visible
